DMSP 5D-2 F13 DEB

Satellite information

Favourite Embed

Satellite Type and Status

DEBRISIN ORBIT

Key statistics

Satellite DMSP 5D-2 F13 DEB at a glance.

Uptime

11061

Days in orbit

Revolutions

≈ 14.4

Per day

Orbit

SSO

Sun Synchronous Orbit

Inclination

98.7

Latest

Satellite identification and parameters

Extended collection of information and parameters for DMSP 5D-2 F13 DEB.

Object identification

Identified? True

Debris? True

Object name: DMSP 5D-2 F13 DEB

International designator: 1995-015CL

Object number (NORAD): 40497

Object ID (CCSDS): 40497

Country: UNITED STATES OF AMERICA (US)

Current information (Y/N): Y

RCS size: SMALL

Orbital parameters

Period: 100.129 minutes

Inclination: 98.6934 deg

SMA: 7142.779 km

Apoapsis: 766.313 km

Periapsis: 762.975 km

RAAN: 215.6539 deg

Eccentricy: 0.0002337

Argument of periapsis: 357.4129 deg

Mean anomaly: 2.7045 deg

Mean motion: 14.38142632 rev/day

Mean motion (dot): 0.00003982 rev/day2

B* drag term: 0.001327 1/REarth

Two-line elements (TLE)

Creation date: July 3, 2025, 6:56 a.m.

Reference frame: TEME

Reference center: EARTH

Epoch: July 2, 2025, 10:04 p.m. UTC

TLE line 0: 0 DMSP 5D-2 F13 DEB

TLE line 1: 1 40497U 95015CL 25183.91966069 .00003982 00000-0 13270-2 0 9996

TLE line 2: 2 40497 98.6934 215.6539 0002337 357.4129 2.7045 14.38142632536468

Live tracking on map

Real-time ground track for satellite DMSP 5D-2 F13 DEB.

In-orbit conjunctions

A list of the most updated potential collisions computed for object DMSP 5D-2 F13 DEB.

Target Orbit TCA Probability of collision Miss distance Type
COSMOS 1624 LEO 2025-01-08 09:20:22 0.0001397668 417.0 (m) PAYLOAD
IRIDIUM 33 LEO 2025-01-06 02:34:44 0.001245541 111.0 (m) PAYLOAD
EYESAT A SSO 2024-06-03 17:47:36 0.0001135188 482.0 (m) PAYLOAD

Associated space launch

Military meteorological satellite

DMSP 5D-2 F13 DEB was lifted into orbit during the mission ‘Atlas E | DMSP-5D2 F13’, on board a Atlas E space rocket.

The launch took place on March 24, 1995, 2:05 p.m. from Space Launch Complex 3W.

For more information about the launch, click the button.

Launch to space Atlas E | DMSP-5D2 F13
Atlas E | DMSP-5D2 F13

Agency: N/A

Status: Launch Successful

Launch date: March 24, 1995, 2:05 p.m. UTC

Rocket: Atlas E

Launch pad: Space Launch Complex 3W

Location: Vandenberg SFB, CA, USA

...

Latest news about this satellite

There are no fresh news available about this satellite. Check back as we update our databases every day.


Newsletter sign-up

Weekly statistics, charts and insights to help you stay on top of the space industry.